Vertical_Velocity
-2 -1 0 -2 -1 -2 -1 -1 -2 -3 -2 0 1 -0 1 0 -0 -2 -3 2 0 0 0 -0 -0 0 -1 -2 -1 -1 -1 -1 -3
-1 -3 -2 -2 -2 -1 0 1 -1 -3 -5 1 0 1 -0 -1 -1 2 2 -1 -1 0 -2 -2 -1 -1 -2 -1 -1 -1 -2 -1 -1
2 -2 -0 4 0 -3 -0 1 -2 -1 -2 -2 -0 0 1 -1 -0 0 -0 2 -1 -2 0 0 -0 -0 -1 -1 1 1 -1 1 -1
1 1 -2 -1 2 1 -3 1 1 -3 -2 -0 0 0 -0 0 -1 -1 -1 -1 1 -1 -2 0 0 -0 -0 -1 -0 -2 -1 -2 0
0 -0 -0 -0 2 0 0 -1 0 -0 -1 -2 -1 -2 -2 1 0 0 1 -0 -0 1 -1 -2 -2 0 -1 -1 -3 -0 0 -2 -2
1 -0 -1 -0 -1 1 -0 -1 -0 -0 -1 -3 -1 -0 -1 -2 -1 -1 -2 1 0 2 1 -1 -1 -0 -1 -2 0 -2 -2 1 -1
-1 3 0 -0 -1 2 2 -0 1 -1 -1 -1 -3 -1 -1 -1 -1 -2 -0 -1 -0 -1 2 1 0 -2 1 1 -1 -1 -1 1 1
-0 0 3 -2 -1 -2 -0 1 -2 -0 -1 0 -2 -2 0 -1 -1 -0 0 -0 0 1 -2 0 0 -0 -0 1 -1 1 -0 -1 -0
-1 -2 -2 0 0 -4 -1 1 1 -1 -1 1 1 -0 -1 -0 2 1 -2 -1 -2 -3 0 1 1 4 -0 0 1 -0 0 1 1
-1 -1 -3 1 3 -1 -3 -1 0 3 1 -0 -0 -1 0 0 -1 2 -1 -3 -1 -3 1 -3 -1 -2 -0 1 2 0 2 1 1
-5 1 -1 -2 1 5 1 -0 -0 -0 1 2 1 2 -1 -2 -0 0 -2 1 1 1 -1 -0 -2 1 -0 -2 0 0 2 -1 1
0 1 -1 -2 1 1 3 -0 1 -0 -1 -1 0 -0 -0 -1 -3 -1 1 4 -2 2 -5 -0 -0 -2 1 -2 0 -0 -0 -1 0
3 -2 -1 -1 1 -1 3 1 2 1 -1 0 0 -1 1 -3 -2 1 1 -0 -0 3 -3 -0 1 0 0 -1 -4 11 -1 -3 -4
10 2 3 0 4 -2 2 0 0 -0 -0 -1 -1 0 -2 2 1 0 -1 -1 2 3 2 -0 -3 0 1 -3 -1 -1 -1 -1 -0
-11 11 7 2 1 3 2 -1 0 -1 0 -0 -1 0 1 2 1 2 1 -3 0 -1 2 -3 0 -1 -0 -0 -2 -3 -0 1 2
-15 4 10 2 -2 2 4 8 -2 -1 1 5 4 3 0 -2 -0 1 2 -1 -2 -7 3 2 -2 -2 0 -1 -0 -1 -1 -3 -4
-4 -13 -12 1 6 -0 -1 1 1 2 2 0 5 -1 1 -2 -1 1 3 1 4 -6 0 -2 0 -0 0 -2 -2 -2 1 1 1
-0 -11 -8 2 1 3 2 1 4 1 6 5 -2 -1 -7 1 0 2 0 -1 3 3 2 2 -1 -3 -2 1 -4 -2 -3 -1 1
10 -7 6 -7 2 3 -1 3 2 3 1 9 1 5 1 -2 -2 0 -0 -1 2 -3 -1 5 -7 -4 -3 -4 3 0 1 -0 2
-3 1 2 1 5 5 1 1 2 1 -3 5 4 7 2 5 -0 -1 -3 -1 0 4 -0 4 2 -2 4 1 -0 -2 -0 -2 -3
Height
1537 1538 1539 1540 1542 1543 1545 1547 1548 1549 1551 1551 1552 1552 1553 1553 1552 1552 1552 1552 1551 1551 1550 1549 1549 1548 1547 1546 1545 1544 1543 1542 1541
1537 1538 1540 1541 1543 1545 1546 1548 1550 1550 1551 1553 1553 1553 1553 1554 1554 1554 1553 1553 1552 1552 1551 1551 1550 1549 1548 1548 1546 1545 1544 1543 1543
1537 1539 1540 1541 1543 1545 1548 1549 1551 1552 1552 1553 1554 1554 1554 1554 1555 1555 1555 1554 1553 1553 1553 1552 1551 1550 1549 1549 1548 1547 1546 1545 1544
1538 1539 1541 1542 1544 1545 1548 1550 1551 1553 1553 1554 1555 1555 1555 1555 1555 1556 1555 1555 1555 1554 1554 1553 1553 1551 1550 1550 1549 1549 1548 1547 1545
1537 1539 1541 1542 1544 1546 1548 1550 1552 1553 1554 1554 1555 1555 1556 1556 1556 1556 1556 1556 1556 1555 1554 1554 1553 1552 1551 1551 1550 1549 1548 1547 1546
1536 1538 1540 1542 1544 1546 1547 1549 1551 1552 1553 1554 1554 1555 1555 1556 1556 1556 1556 1556 1556 1556 1555 1554 1553 1553 1552 1551 1550 1549 1549 1548 1547
1535 1537 1539 1541 1543 1545 1547 1548 1550 1551 1552 1553 1554 1554 1555 1556 1556 1556 1556 1556 1556 1556 1556 1555 1554 1553 1552 1551 1551 1550 1549 1548 1547
1533 1536 1537 1538 1540 1543 1545 1547 1548 1550 1551 1552 1552 1553 1554 1555 1555 1555 1555 1555 1556 1555 1555 1555 1554 1553 1553 1551 1551 1550 1549 1548 1547
1530 1532 1535 1536 1536 1539 1543 1545 1547 1548 1549 1551 1551 1552 1552 1554 1554 1554 1554 1554 1554 1555 1554 1554 1554 1553 1552 1551 1551 1550 1549 1548 1547
1527 1528 1531 1533 1534 1535 1539 1542 1544 1546 1547 1548 1549 1550 1551 1552 1553 1554 1553 1553 1553 1553 1553 1553 1553 1552 1551 1551 1550 1549 1548 1548 1546
1523 1525 1527 1529 1531 1533 1536 1539 1541 1544 1546 1546 1547 1548 1549 1550 1551 1552 1552 1552 1552 1551 1550 1551 1551 1551 1550 1549 1549 1549 1548 1547 1546
1517 1519 1522 1524 1527 1531 1534 1536 1538 1540 1542 1543 1544 1546 1546 1547 1548 1549 1550 1550 1550 1550 1550 1549 1548 1549 1548 1547 1547 1546 1545 1545 1545
1509 1512 1515 1520 1523 1527 1530 1532 1535 1537 1538 1540 1542 1543 1543 1544 1545 1546 1547 1548 1548 1548 1548 1547 1546 1545 1544 1544 1544 1544 1543 1543 1543
1501 1504 1510 1515 1519 1522 1526 1528 1531 1533 1535 1537 1539 1540 1541 1541 1542 1542 1544 1545 1545 1547 1544 1544 1543 1543 1541 1540 1541 1541 1542 1541 1541
1494 1502 1504 1510 1515 1518 1521 1524 1527 1529 1532 1535 1536 1538 1538 1538 1538 1539 1540 1542 1542 1543 1541 1540 1540 1539 1538 1537 1538 1537 1540 1540 1539
1490 1500 1502 1507 1511 1513 1517 1519 1522 1525 1528 1531 1532 1533 1534 1534 1534 1535 1535 1536 1537 1537 1539 1537 1536 1536 1535 1535 1536 1537 1537 1537 1537
1484 1493 1498 1504 1505 1509 1512 1516 1517 1519 1524 1526 1528 1529 1531 1530 1530 1531 1531 1532 1532 1533 1534 1533 1532 1533 1533 1533 1535 1535 1535 1534 1534
1479 1488 1494 1498 1503 1505 1506 1511 1512 1515 1519 1520 1524 1525 1523 1525 1527 1525 1527 1528 1529 1530 1531 1529 1529 1529 1530 1530 1531 1531 1532 1532 1532
1477 1482 1486 1493 1500 1501 1503 1507 1509 1512 1515 1517 1519 1520 1520 1521 1522 1521 1522 1523 1525 1526 1526 1525 1525 1526 1525 1526 1527 1528 1528 1529 1529
1472 1479 1482 1489 1493 1496 1499 1501 1502 1506 1509 1511 1513 1515 1517 1518 1518 1516 1517 1518 1519 1522 1521 1521 1520 1521 1522 1523 1524 1525 1525 1525 1526